Location: Newark
(32.8494°S, 27.4381°E)
Time: 14:28:47
(UTC+00:00)

Tiangong 2 - Visible Passes

Search period start: 17 July 2019 00:00
Search period end: 27 July 2019 00:00
Orbit: 378 x 386 km, 42.8° (Epoch: 17 July)

Date Brightness Start Highest point End Pass type
(mag) Time Alt. Az. Time Alt. Az. Time Alt. Az.
17 Jul 2.1 03:24:47 43° SE 03:24:47 43° SE 03:27:05 10° ESE visible
18 Jul 2.3 03:59:52 26° SW 04:00:21 27° SSW 04:03:11 10° SE visible
19 Jul 4.1 03:02:36 13° SE 03:02:36 13° SE 03:03:00 10° SE visible
19 Jul 3.2 04:35:02 10° SW 04:37:07 16° S 04:39:12 10° SSE visible
20 Jul 3.2 03:37:24 18° S 03:37:24 18° S 03:38:58 10° SE visible
21 Jul 3.3 04:12:06 12° SSW 04:13:21 14° S 04:15:11 10° SSE visible
22 Jul 4.1 03:14:35 11° SSE 03:14:35 11° SSE 03:14:48 10° SSE visible
23 Jul 3.4 03:49:11 14° S 03:49:35 14° S 03:51:23 10° SE visible
24 Jul 3.1 04:24:00 10° SW 04:26:25 19° SSE 04:28:49 10° ESE visible
25 Jul 3.5 03:26:10 15° SSE 03:26:10 15° SSE 03:27:47 10° SE visible
26 Jul 2.8 04:00:46 16° SSW 04:02:30 25° SSE 04:05:16 10° ESE visible
